GW6932 Weather Reports


Display with metric or nautical units.
time (UTC)temp
F
wind
direction
speed
MPH
gust
MPH
rain 1hr
in
rain 24hr
in
rain mn
in
humidity
%
barometer
mb
20260502161656 69 60 3.0 6.0 0.00 0.00 0.00 56 1021.4
20260502161152 69 61 2.0 9.0 0.00 0.00 0.00 54 1021.6
20260502160650 69 7 3.0 7.0 0.00 0.00 0.00 55 1021.3
20260502160149 68 54 4.0 6.0 0.00 0.00 0.00 56 1021.3
20260502152103 66 225 0.0 6.0 0.00 0.00 0.00 66 1021.1
20260502151600 67 170 2.0 5.0 0.00 0.00 0.00 67 1021.1
20260502151057 66 30 2.0 6.0 0.00 0.00 0.00 67 1021.3
20260502150555 65 155 3.0 4.0 0.00 0.00 0.00 68 1021.1
20260502130440 59 11 2.0 5.0 0.00 0.00 0.00 80 1019.8
20260502123422 55 295 2.0 2.0 0.00 0.00 0.00 91 1019.5
20260502122920 53 42 0.0 3.0 0.00 0.00 0.00 95 1019.3
20260502122415 53 100 0.0 2.0 0.00 0.00 0.00 96 1019.3
20260502121914 52 85 1.0 2.0 0.00 0.00 0.00 97 1019.2
20260502121411 51 21 0.0 2.0 0.00 0.00 0.00 97 1019.1
20260502120908 51 39 0.0 1.0 0.00 0.00 0.00 97 1019.1
20260502120404 51 68 1.0 2.0 0.00 0.00 0.00 97 1019.1
20260502115902 51 351 1.0 1.0 0.00 0.00 0.00 97 1019.2
20260502115359 51 89 0.0 2.0 0.00 0.00 0.00 97 1019.0
20260502114854 50 113 0.0 1.0 0.00 0.00 0.00 97 1019.0
20260502114352 50 52 0.0 1.0 0.00 0.00 0.00 97 1018.9
20260502113849 50 60 0.0 2.0 0.00 0.00 0.00 97 1019.0
20260502113346 50 78 2.0 3.0 0.00 0.00 0.00 97 1018.8
20260502112845 50 26 1.0 2.0 0.00 0.00 0.00 97 1018.7
20260502112342 50 304 0.0 2.0 0.00 0.00 0.00 97 1018.7
20260502111839 50 101 0.0 2.0 0.00 0.00 0.00 97 1018.8
20260502111336 51 89 0.0 2.0 0.00 0.00 0.00 96 1018.6
20260502110834 51 46 1.0 2.0 0.00 0.00 0.00 96 1018.7
20260502110332 51 63 1.0 2.0 0.00 0.00 0.00 96 1018.6
20260502105829 51 22 0.0 1.0 0.00 0.00 0.00 96 1018.4
20260502105326 51 116 0.0 2.0 0.00 0.00 0.00 96 1018.5
20260502104823 51 55 1.0 2.0 0.00 0.00 0.00 96 1018.4
20260502104321 51 33 1.0 2.0 0.00 0.00 0.00 96 1018.2
20260502103818 51 107 3.0 3.0 0.00 0.00 0.00 96 1018.4
20260502103315 51 32 0.0 2.0 0.00 0.00 0.00 96 1018.5
20260502102813 51 350 0.0 1.0 0.00 0.00 0.00 96 1018.2
20260502102308 51 60 0.0 2.0 0.00 0.00 0.00 96 1018.3
20260502101807 51 84 1.0 2.0 0.00 0.00 0.00 96 1018.1
20260502101304 51 269 0.0 2.0 0.00 0.00 0.00 96 1018.0
20260502100802 51 78 2.0 2.0 0.00 0.00 0.00 96 1017.8
20260502100301 51 56 0.0 2.0 0.00 0.00 0.00 96 1017.7
20260502091235 51 107 0.0 2.0 0.00 0.00 0.00 95 1016.9
20260502090732 51 55 2.0 2.0 0.00 0.00 0.00 95 1016.7
20260502090229 51 89 0.0 2.0 0.00 0.00 0.00 95 1016.7
20260502071130 54 43 0.0 4.0 0.00 0.00 0.00 91 1016.9
20260502070628 54 59 3.0 4.0 0.00 0.00 0.00 91 1016.9
20260502070125 54 65 1.0 5.0 0.00 0.00 0.00 91 1016.8
20260502065624 54 41 2.0 6.0 0.00 0.00 0.00 91 1016.7
20260502065121 54 82 2.0 2.0 0.00 0.00 0.00 91 1016.6
20260502064620 54 73 2.0 4.0 0.00 0.00 0.00 91 1016.6
20260502064116 54 87 3.0 7.0 0.00 0.00 0.00 91 1016.5
20260502063614 54 56 2.0 3.0 0.00 0.00 0.00 91 1016.6
20260502063111 54 48 2.0 3.0 0.00 0.00 0.00 91 1016.5
20260502062608 54 30 2.0 6.0 0.00 0.00 0.00 91 1016.4
20260502062106 54 40 4.0 6.0 0.00 0.00 0.00 91 1016.6
20260502061604 54 51 3.0 5.0 0.00 0.00 0.00 91 1016.4
20260502061101 54 40 4.0 6.0 0.00 0.00 0.00 92 1016.5
20260502060556 54 29 6.0 6.0 0.00 0.00 0.00 92 1016.7
20260502060053 54 33 3.0 5.0 0.00 0.00 0.00 92 1016.6
20260502055550 54 93 2.0 4.0 0.00 0.00 0.00 93 1016.6
20260502055049 54 84 1.0 5.0 0.00 0.00 0.00 93 1016.6
20260502054548 54 84 3.0 3.0 0.00 0.00 0.00 93 1016.5
20260502054044 54 61 6.0 7.0 0.00 0.00 0.00 93 1016.5
20260502053541 54 94 0.0 8.0 0.00 0.00 0.00 93 1016.5
20260502053039 54 78 4.0 5.0 0.00 0.00 0.00 93 1016.4
20260502052537 54 36 6.0 6.0 0.00 0.00 0.00 94 1016.6
20260502052035 54 91 2.0 6.0 0.00 0.00 0.00 93 1016.6
20260502051533 54 77 1.0 4.0 0.00 0.00 0.00 93 1016.7
20260502051030 54 24 1.0 5.0 0.00 0.00 0.00 94 1016.5
20260502050526 55 21 4.0 6.0 0.00 0.00 0.00 94 1016.6
20260502050023 55 74 5.0 5.0 0.00 0.00 0.00 94 1016.6
20260502045520 55 88 2.0 4.0 0.00 3.53 3.53 94 1016.6
20260502045017 55 82 0.0 4.0 0.00 3.53 3.53 94 1016.4
20260502044513 55 74 3.0 5.0 0.00 3.53 3.53 94 1016.5
20260502044010 55 30 3.0 6.0 0.00 3.53 3.53 95 1016.3
20260502043508 55 8 2.0 4.0 0.00 3.53 3.53 95 1016.3
20260502043003 55 37 2.0 6.0 0.00 3.53 3.53 95 1016.3
20260502042459 55 52 3.0 4.0 0.00 3.53 3.53 95 1016.4
20260502041956 55 139 1.0 5.0 0.00 3.53 3.53 95 1016.4
20260502041454 55 49 6.0 6.0 0.00 3.53 3.53 96 1016.6
20260502040951 55 104 2.0 6.0 0.00 3.53 3.53 96 1016.6
20260502040447 55 235 1.0 3.0 0.00 3.53 3.53 96 1016.8
20260502035944 55 38 0.0 3.0 0.00 3.53 3.53 96 1016.5
20260502035440 55 46 3.0 5.0 0.00 3.53 3.53 96 1016.4
20260502034938 55 294 1.0 3.0 0.00 3.53 3.53 96 1016.4
20260502034436 55 72 2.0 3.0 0.00 3.53 3.53 96 1016.3
20260502033935 55 329 1.0 5.0 0.00 3.53 3.53 96 1016.2
20260502033431 55 303 0.0 4.0 0.00 3.53 3.53 96 1016.2
20260502032928 55 131 3.0 4.0 0.00 3.53 3.53 96 1016.2
20260502032425 55 87 3.0 5.0 0.00 3.53 3.53 96 1016.2
20260502031922 55 4 3.0 3.0 0.00 3.53 3.53 96 1016.0
20260502031421 55 83 2.0 2.0 0.00 3.53 3.53 96 1015.8
20260502030918 55 77 2.0 6.0 0.00 3.53 3.53 96 1015.6
20260502030416 55 57 3.0 5.0 0.00 3.53 3.53 96 1015.7
20260502025914 55 62 4.0 6.0 0.00 3.53 3.53 96 1015.4
20260502025410 55 43 4.0 4.0 0.00 3.53 3.53 97 1015.0
20260502024909 55 55 4.0 4.0 0.00 3.53 3.53 97 1015.0
20260502024406 55 83 2.0 4.0 0.02 3.53 3.53 97 1015.1
20260502023904 55 83 3.0 3.0 0.02 3.53 3.53 97 1015.2
20260502023401 55 50 1.0 4.0 0.07 3.52 3.52 97 1015.2
20260502022859 55 72 0.0 7.0 0.12 3.52 3.52 96 1015.0
20260502022355 55 89 4.0 7.0 0.12 3.51 3.51 96 1014.8
20260502021852 55 73 0.0 3.0 0.09 3.50 3.50 96 1015.1
20260502021349 55 95 2.0 3.0 0.14 3.49 3.49 96 1015.0
20260502020847 55 8 0.0 4.0 0.14 3.48 3.48 96 1015.1
20260502020344 55 74 3.0 3.0 0.17 3.47 3.47 96 1014.8
20260502015841 55 75 3.0 3.0 0.14 3.45 3.45 96 1015.1
20260502015338 55 89 0.0 6.0 0.14 3.44 3.44 96 1014.7
20260502014835 55 73 3.0 5.0 0.31 3.43 3.43 96 1014.3
20260502014332 56 93 3.0 9.0 0.28 3.41 3.41 96 1014.2
20260502013828 56 80 3.0 5.0 0.14 3.37 3.37 96 1014.0
20260502013324 56 350 2.0 4.0 0.14 3.36 3.36 96 1013.9
20260502012821 56 259 2.0 5.0 0.12 3.35 3.35 96 1014.0
20260502012319 56 65 3.0 3.0 0.09 3.33 3.33 96 1014.4
20260502011816 56 89 0.0 4.0 0.05 3.32 3.32 96 1014.8
20260502011312 56 131 2.0 4.0 0.02 3.32 3.32 96 1014.5
20260502010809 56 187 0.0 3.0 0.02 3.31 3.31 96 1014.0
20260502010305 56 323 0.0 5.0 0.02 3.31 3.31 96 1013.4
20260502005802 56 14 0.0 11.0 0.02 3.31 3.31 96 1013.0
20260502005300 57 331 2.0 8.0 0.05 3.31 3.31 97 1012.7
20260502004757 57 47 4.0 5.0 0.07 3.31 3.31 97 1012.8
20260502004253 57 55 3.0 4.0 0.09 3.30 3.30 97 1013.4
20260502003751 57 104 4.0 5.0 0.09 3.29 3.29 97 1013.8
20260502003248 58 20 0.0 2.0 0.12 3.28 3.28 97 1013.8
20260502002743 57 38 1.0 3.0 0.14 3.28 3.28 97 1013.7
20260502002242 57 234 2.0 3.0 0.12 3.26 3.26 97 1013.4
20260502001738 57 37 1.0 3.0 0.09 3.25 3.25 96 1013.3
20260502001237 57 48 1.0 4.0 0.12 3.24 3.24 96 1013.2
20260502000734 57 18 2.0 5.0 0.12 3.24 3.24 96 1012.9
20260502000233 57 57 4.0 4.0 0.12 3.22 3.22 96 1012.7
20260501235732 58 68 3.0 5.0 0.09 3.21 3.21 96 1012.8
20260501235229 58 1 1.0 5.0 0.09 3.21 3.21 96 1012.6
20260501234725 58 105 2.0 6.0 0.07 3.19 3.19 96 1012.8
20260501234222 58 27 3.0 3.0 0.07 3.19 3.19 96 1012.3
20260501233720 58 50 3.0 4.0 0.09 3.18 3.18 96 1012.6
20260501233217 58 7 1.0 4.0 0.09 3.17 3.17 96 1012.4
20260501232712 58 76 1.0 4.0 0.17 3.16 3.16 96 1012.3
20260501232210 58 107 3.0 4.0 0.28 3.15 3.15 95 1012.3
20260501231708 58 85 2.0 6.0 0.50 3.12 3.12 95 1012.6
20260501231205 58 92 5.0 6.0 0.26 3.07 3.07 95 1012.4
20260501230704 58 72 2.0 6.0 0.02 3.03 3.03 95 1012.6
20260501230202 58 138 1.0 5.0 0.00 3.03 3.03 95 1012.7
20260501225659 58 333 0.0 4.0 0.00 3.03 3.03 94 1011.7
20260501225155 58 96 7.0 9.0 0.00 3.03 3.03 94 1010.5
20260501224652 58 85 3.0 13.0 0.00 3.03 3.03 94 1010.4
20260501224149 58 105 3.0 11.0 0.00 3.03 3.03 95 1010.8
20260501223646 59 63 5.0 8.0 0.00 3.03 3.03 95 1010.9
20260501223143 59 104 3.0 7.0 0.00 3.03 3.03 95 1011.1
20260501222638 59 33 4.0 5.0 0.05 3.03 3.03 95 1011.0
20260501222135 59 64 2.0 6.0 0.02 3.02 3.02 95 1011.2
20260501221632 59 62 1.0 9.0 0.02 3.02 3.02 95 1011.7
20260501221130 59 10 2.0 6.0 0.02 3.02 3.02 95 1012.1
20260501220628 59 73 2.0 3.0 0.02 3.02 3.02 95 1012.7
20260501220124 59 44 1.0 6.0 0.05 3.02 3.02 95 1012.6
20260501215621 59 54 3.0 7.0 0.07 3.01 3.01 95 1012.5
20260501215116 59 58 4.0 4.0 0.12 3.01 3.01 95 1012.6
20260501214611 60 297 1.0 3.0 0.05 3.00 3.00 96 1012.5
20260501214107 60 38 2.0 6.0 0.00 2.99 2.99 96 1012.1
20260501213604 59 224 0.0 2.0 0.00 2.99 2.99 96 1012.3
20260501213100 59 249 1.0 3.0 0.00 2.99 2.99 96 1012.2
20260501212557 59 134 0.0 4.0 0.02 2.99 2.99 96 1012.1
20260501212054 59 33 5.0 6.0 0.07 2.99 2.99 96 1011.2
20260501211550 59 26 2.0 6.0 0.09 2.98 2.98 96 1010.8
20260501211049 59 103 2.0 4.0 0.12 2.98 2.98 96 1010.6
20260501210544 59 116 0.0 4.0 0.12 2.96 2.96 96 1010.5
20260501210041 59 18 1.0 7.0 0.09 2.95 2.95 96 1010.5
20260501205538 60 11 2.0 5.0 0.09 2.94 2.94 96 1011.4
20260501205036 60 66 0.0 5.0 0.09 2.94 2.94 96 1012.0
20260501204532 60 116 1.0 4.0 0.21 2.93 2.93 96 1011.0
20260501204028 60 77 1.0 4.0 0.17 2.91 2.91 96 1011.1
20260501203525 60 100 4.0 5.0 0.09 2.89 2.89 96 1011.0
20260501203022 60 110 3.0 3.0 0.09 2.89 2.89 96 1010.9
20260501202519 60 342 3.0 5.0 0.19 2.88 2.88 96 1010.6
20260501202015 60 80 2.0 5.0 0.17 2.86 2.86 96 1011.2
20260501201513 60 92 0.0 4.0 0.07 2.84 2.84 96 1010.9
20260501201009 61 43 2.0 6.0 0.07 2.83 2.83 96 1010.8
20260501200507 61 305 1.0 4.0 0.17 2.83 2.83 96 1010.9
20260501200004 61 27 2.0 7.0 0.09 2.81 2.81 96 1010.6
20260501195501 61 79 2.0 7.0 0.05 2.80 2.80 96 1010.4
20260501194956 61 43 0.0 2.0 0.00 2.79 2.79 96 1011.0
20260501194452 61 78 2.0 5.0 0.00 2.79 2.79 97 1010.7
20260501193948 61 61 2.0 3.0 0.02 2.79 2.79 97 1010.9
20260501193446 61 68 1.0 3.0 0.05 2.79 2.79 97 1010.5
20260501192944 61 118 0.0 3.0 0.05 2.79 2.79 97 1010.4
20260501192441 61 63 1.0 2.0 0.05 2.79 2.79 97 1010.1
20260501191938 61 40 2.0 4.0 0.07 2.78 2.78 97 1010.4
20260501191435 61 118 1.0 4.0 0.09 2.78 2.78 97 1010.5
20260501190932 61 87 3.0 4.0 0.12 2.77 2.77 97 1010.1
20260501190428 60 58 3.0 7.0 0.14 2.76 2.76 97 1009.9
20260501185929 60 96 2.0 9.0 0.21 2.75 2.75 96 1010.3
20260501185425 61 106 0.0 5.0 0.24 2.73 2.73 97 1010.6
20260501184921 61 14 3.0 7.0 0.19 2.71 2.71 96 1010.3
20260501184418 61 45 1.0 3.0 0.12 2.69 2.69 97 1010.9
20260501183912 61 105 2.0 3.0 0.17 2.68 2.68 96 1010.7
20260501183410 61 22 2.0 6.0 0.21 2.67 2.67 96 1009.5
20260501182906 61 83 7.0 10.0 0.07 2.64 2.64 96 1008.2
20260501182404 61 91 2.0 6.0 0.02 2.63 2.63 96 1009.2
20260501181900 61 112 1.0 6.0 0.02 2.63 2.63 96 1009.6
20260501181357 61 98 8.0 11.0 0.05 2.63 2.63 96 1009.2
20260501180855 61 332 1.0 3.0 0.05 2.63 2.63 96 1009.6
20260501180350 61 53 0.0 6.0 0.09 2.62 2.62 96 1010.2
20260501175848 61 71 2.0 4.0 0.07 2.61 2.61 96 1010.6
20260501175344 61 19 3.0 4.0 0.02 2.61 2.61 96 1010.6
20260501174841 62 41 4.0 5.0 0.02 2.60 2.60 96 1010.8
20260501174339 62 83 3.0 5.0 0.02 2.60 2.60 96 1011.4
20260501173837 62 32 0.0 3.0 0.00 2.60 2.60 96 1011.3
20260501173334 61 98 0.0 4.0 0.00 2.60 2.60 96 1011.3
20260501172829 61 38 4.0 6.0 0.00 2.60 2.60 97 1011.2
20260501172324 61 112 2.0 6.0 0.02 2.60 2.60 97 1011.2
20260501171820 61 341 0.0 4.0 0.05 2.60 2.60 97 1011.4
20260501171317 61 89 1.0 4.0 0.05 2.59 2.59 97 1011.5
20260501170814 61 37 4.0 5.0 0.05 2.59 2.59 97 1011.7
20260501170311 60 328 2.0 6.0 0.05 2.59 2.59 97 1011.7
20260501165808 60 139 5.0 9.0 0.05 2.58 2.58 97 1011.9
20260501165306 60 121 0.0 6.0 0.05 2.58 2.58 97 1011.7
20260501164804 60 54 2.0 4.0 0.09 2.57 2.57 97 1012.3
20260501164301 61 75 2.0 3.0 0.14 2.56 2.56 97 1012.7
20260501163756 60 56 4.0 5.0 0.17 2.55 2.55 97 1012.5
20260501163254 60 71 2.0 5.0 0.19 2.54 2.54 97 1013.1
20260501162750 60 110 0.0 4.0 0.24 2.52 2.52 97 1013.4
20260501162247 60 137 2.0 6.0 0.24 2.50 2.50 97 1013.4